Regional Weather Roundup
Issued by NWS Newport/Morehead, NC

Current Version | Previous Version | Text Only | Print | Product List | Glossary Off
Versions: 1 2 3 4 5 6 7 8 9 10 11 12 13 14 15 16 17 18 19 20 21 22 23 24 25 26 27 28 29 30 31 32 33 34 35 36 37 38 39 40 41 42 43 44 45 46 47 48 49 50
000 ASUS42 KMHX 231025 RWRMHX WEATHER ROUNDUP FOR EASTERN NORTH CAROLINA NATIONAL WEATHER SERVICE NEWPORT/MOREHEAD CITY NC 600 AM EDT FRI JUN 23 2017 NOTE: "FAIR" INDICATES FEW OR NO CLOUDS BELOW 12,000 FEET WITH NO SIGNIFICANT WEATHER AND/OR OBSTRUCTIONS TO VISIBILITY NCZ015>017-031-032-045>047-102-103-231100- NORTH COAST CITY SKY/WX TMP DP RH WIND PRES REMARKS EDENTON MOCLDY 78 74 87 CALM 30.00S ELIZABETH CITY CLOUDY 76 73 91 SW6 29.99S KITTY HAWK CLOUDY 77 71 81 CALM 29.99R MANTEO CLOUDY 76 74 91 W8 30.00S $$ NCZ045>047-081-094-103-104-231100- CENTRAL COAST CITY SKY/WX TMP DP RH WIND PRES REMARKS FRISCO CLOUDY 79 76 90 W8 30.02S $$ NCZ095-097-098-100-101-231100- SOUTHERN COAST CITY SKY/WX TMP DP RH WIND PRES REMARKS BEAUFORT MOCLDY 80 79 96 SW12 30.02S CEDAR ISLAND NOT AVBL JACKSONVILLE CLOUDY 77 77 100 SW5 30.02R PINEY ISLAND MOSUNNY N/A N/A N/A SW8 30.01S WILMINGTON CLOUDY 78 77 96 SW5 30.03S $$ NCZ011>013-027>030-043-044-078>080-089-090>093-098-231100- COASTAL PLAIN CITY SKY/WX TMP DP RH WIND PRES REMARKS AHOSKIE N/A 72 71 97 S3 29.98F CLINTON CLOUDY 76 76 100 CALM 30.02S ELIZABETHTOWN NOT AVBL GOLDSBORO CLOUDY 77 77 100 SW8 29.99S GREENVILLE CLOUDY 77 77 100 SW7 30.02S HAVELOCK CLOUDY 78 75 90 SW7 30.03S KENANSVILLE CLOUDY 75 75 100 SW3 30.02S FOG KINSTON CLOUDY 77 75 95 SW7 30.01S NEW BERN CLOUDY 76 76 100 SW6 30.03S FOG RICHLANDS CLOUDY 76 76 100 SW7 30.03R ROCKY MOUNT MOCLDY 74 74 100 S7 29.99F WASHINGTON CLOUDY 75 74 97 S3 30.01S WHITEVILLE CLOUDY 78 76 92 SW5 30.02F $$ AMZ130-135-150-152-154-156-158-170-250-252-270-ANZ085-086-088-633-658-670-231100- MARINE OBSERVATIONS STATION/POSITION TIME TEMP WIND PRES WAVE SWELL AIR SEA DIR/SP/G HT/PER HT/PER (UTC) (F) (DEG/KT/KT) (MB) (FT/S) (FT/S) CHESAPEAKE LIGHT NOT AVBL 64 E VA BEACH 0950 74 72 230/ 10/ 14 1015.0 3/ 9 2/ 9 DUCK 1000 78 62 250/ 13/ 15 1015.0 2 E DUCK NOT AVBL OREGON INLET 1000 78 78 230/ 13/ 16 1015.6 13E OREGON INLT 0948 71 N/A 3/ 8 2/ 8 HATTERAS CG 1000 78 78 240/ 7/ 9 1016.2 DIAMOND BUOY 0950 80 80 250/ 12/ 14 1016.3 3/ 8 2/ 8 CAPE LOOKOUT 1000 79 230/ 8/ 11 1016.3 BEAUFORT LAB 1000 79 78 240/ 4/ 9 1016.0 30 SE NEW RVR IN 1008 79 80 250/ 12/ 16 1017.0 30 SE NEW RVR IN 1013 80 N/A 4/ 8 27 SE WRIGHTSVLE 1008 78 80 230/ 10/ 16 1016.4 5 SE WRIGHTSVLE 1008 80 79 240/ 10/ 14 1016.8 225 S CAPE HAT 0950 80 81 220/ 12/ 14 1018.6 4/ 9 3/ 9 41 SE CHARLESTON 1010 81 81 210/ 16/ 19 1017.0 $$

USA.gov is the U.S. government's official web portal to all federal, state and local government web resources and services.